Location: Holbach
(51.5399°N, 10.6036°E)
Time: 06:34:45
(UTC+00:00)

SJ-6B - Pass Details

Date: 18 September 2020
Orbit: 511 x 580 km, 97.6° (Epoch: 19 October)

Event Time Altitude Azimuth Distance (km) Brightness Sun altitude
Exits shadow 19:21:40 14° 188° (S) 1,513 4.9 -18.3°
Maximum altitude 19:24:43 48° 260° (W) 684 3.6 -18.8°
Drops below altitude 10° 19:28:24 10° 336° (NNW) 1,757 6.1 -19.3°
Sets 19:30:34 0° 342° (NNW) 2,657 7.0 -19.6°
